Location: Bailleul
(50.3375°N, 2.8513°E)
Time: 18:43:35
(UTC+00:00)

HODOYOSHI 4 - Visible Passes

Search period start: 16 January 2022 00:00
Search period end: 26 January 2022 00:00
Orbit: 607 x 642 km, 97.7° (Epoch: 16 January)

Date Brightness Start Highest point End Pass type
(mag) Time Alt. Az. Time Alt. Az. Time Alt. Az.
20 Jan ? 06:44:45 10° ENE 06:46:30 12° NE 06:48:16 10° NNE visible
21 Jan ? 07:02:09 10° E 07:05:00 17° ENE 07:07:50 10° NNE visible
25 Jan ? 06:42:28 10° ENE 06:43:59 12° NE 06:45:30 10° NE visible
